AV279 Weather Reports


time (UTC)temp
C
wind
direction
speed
KPH
gust
KPH
rain 1hr
cm
rain 24hr
cm
rain mn
cm
humidity
%
barometer
mb
20260905004840 15 0.0 0.0 0.00 0.05 0.00 86 1018.4
20260905003818 15 293 1.6 3.2 0.00 0.05 0.00 85 1018.3
20260905002820 15 248 3.2 4.8 0.00 0.05 0.00 84 1018.3
20260905001909 15 225 3.2 4.8 0.00 0.05 0.00 84 1018.2
20260905000820 15 0.0 0.0 0.00 0.05 0.00 83 1018.1
20260904235818 15 0.0 1.6 0.00 0.05 0.05 82 1018.0
20260904234900 15 0.0 0.0 0.00 0.05 0.05 82 1017.8
20260904233829 15 248 1.6 3.2 0.00 0.05 0.05 81 1017.8
20260904232829 15 225 1.6 3.2 0.00 0.05 0.05 81 1017.8
20260904231819 16 225 1.6 3.2 0.00 0.05 0.05 80 1017.8
20260904230900 16 270 3.2 4.8 0.00 0.05 0.05 80 1017.8
20260904230015 16 248 3.2 9.7 0.00 0.05 0.05 80 1017.8
20260904225218 16 248 3.2 4.8 0.00 0.05 0.05 80 1017.8
20260904224218 16 270 1.6 4.8 0.00 0.05 0.05 79 1017.9
20260904223218 16 0.0 3.2 0.00 0.05 0.05 79 1017.8
20260904222218 16 248 1.6 3.2 0.00 0.05 0.05 78 1017.7
20260904221218 16 270 1.6 3.2 0.00 0.05 0.05 78 1017.7
20260904220218 16 0.0 1.6 0.00 0.05 0.05 78 1017.5
20260904215218 16 270 3.2 4.8 0.00 0.05 0.05 77 1017.6
20260904214249 16 225 1.6 4.8 0.00 0.05 0.05 77 1017.6
20260904213218 17 293 1.6 3.2 0.00 0.05 0.05 76 1017.6
20260904212218 17 0.0 0.0 0.00 0.05 0.05 75 1017.4
20260904211249 17 0.0 0.0 0.00 0.05 0.05 75 1017.2
20260904210249 18 0.0 0.0 0.00 0.05 0.05 73 1017.4
20260904205231 18 0.0 0.0 0.00 0.05 0.05 73 1017.2
20260904204218 18 0.0 3.2 0.00 0.05 0.05 72 1017.0
20260904203218 18 0.0 3.2 0.00 0.05 0.05 72 1016.8
20260904202220 18 0.0 0.0 0.00 0.05 0.05 73 1016.7
20260904201229 18 270 1.6 4.8 0.00 0.05 0.05 74 1016.9
20260904200218 18 248 1.6 4.8 0.00 0.05 0.05 74 1016.6
20260904195229 18 270 3.2 4.8 0.00 0.05 0.05 74 1016.4
20260904194229 18 270 1.6 3.2 0.00 0.05 0.05 73 1016.2
20260904193239 19 270 1.6 3.2 0.00 0.05 0.05 73 1016.1
20260904192300 19 293 3.2 4.8 0.00 0.05 0.05 74 1015.8
20260904191241 19 270 3.2 4.8 0.00 0.05 0.05 74 1015.8
20260904190240 19 203 4.8 6.4 0.00 0.05 0.05 77 1015.7
20260904185220 19 270 4.8 9.7 0.00 0.05 0.05 83 1015.7
20260904184220 19 248 1.6 3.2 0.00 0.05 0.05 86 1015.5
20260904183240 19 248 1.6 3.2 0.00 0.05 0.05 85 1015.5
20260904182306 20 225 3.2 6.4 0.00 0.05 0.05 85 1015.2
20260904181231 20 248 3.2 4.8 0.00 0.05 0.05 85 1015.3
20260904180250 20 270 3.2 6.4 0.00 0.05 0.05 84 1015.2
20260904175220 20 248 4.8 6.4 0.00 0.05 0.05 84 1015.2
20260904174240 20 248 3.2 6.4 0.00 0.05 0.05 84 1015.0
20260904173220 20 270 4.8 6.4 0.00 0.05 0.05 84 1015.0
20260904172220 20 270 3.2 6.4 0.00 0.05 0.05 84 1014.8
20260904171250 20 225 4.8 9.7 0.00 0.05 0.05 83 1014.7
20260904170241 20 248 4.8 8.0 0.00 0.05 0.05 83 1014.6
20260904165241 21 270 6.4 11.3 0.00 0.05 0.05 83 1014.6
20260904164320 21 270 9.7 17.7 0.00 0.05 0.05 82 1014.3
20260904163311 21 248 4.8 8.0 0.00 0.05 0.05 81 1014.4
20260904162230 21 270 8.0 12.9 0.00 0.05 0.05 81 1014.3
20260904161230 21 248 8.0 11.3 0.00 0.05 0.05 81 1014.1
20260904160220 21 293 8.0 14.5 0.00 0.05 0.05 81 1013.9
20260904155220 21 270 9.7 14.5 0.00 0.05 0.05 80 1013.9
20260904154230 22 248 8.0 12.9 0.00 0.05 0.05 79 1013.8
20260904153230 22 270 6.4 11.3 0.00 0.05 0.05 77 1013.9
20260904152230 22 248 4.8 6.4 0.00 0.05 0.05 77 1013.8
20260904151230 22 248 6.4 9.7 0.00 0.05 0.05 77 1013.8
20260904150230 22 270 6.4 16.1 0.00 0.05 0.05 77 1013.9
20260904145230 22 270 6.4 11.3 0.00 0.05 0.05 76 1013.8
20260904144220 22 248 9.7 29.0 0.00 0.05 0.05 76 1013.8
20260904143417 22 293 6.4 16.1 0.00 0.05 0.05 78 1013.8
20260904142239 21 248 4.8 6.4 0.00 0.05 0.05 79 1013.8
20260904141230 21 248 8.0 12.9 0.00 0.05 0.05 81 1013.8
20260904140240 21 248 4.8 8.0 0.00 0.05 0.05 81 1013.8
20260904135252 21 270 6.4 11.3 0.00 0.05 0.05 80 1013.8
20260904134220 22 270 9.7 16.1 0.00 0.05 0.05 77 1013.6
20260904133219 22 248 4.8 8.0 0.00 0.05 0.05 76 1013.3
20260904132254 22 270 4.8 11.3 0.00 0.05 0.05 77 1013.3
20260904131220 21 248 6.4 12.9 0.00 0.05 0.05 79 1013.2
20260904130241 21 248 1.6 4.8 0.00 0.05 0.05 80 1013.0
20260904125242 21 225 9.7 20.9 0.00 0.05 0.05 82 1012.6
20260904124241 21 248 6.4 12.9 0.00 0.05 0.05 83 1012.6
20260904123221 21 270 4.8 11.3 0.00 0.05 0.05 83 1012.9
20260904122221 21 270 6.4 11.3 0.00 0.05 0.05 83 1013.2
20260904121300 21 270 8.0 12.9 0.00 0.05 0.05 87 1013.1
20260904120431 21 248 8.0 16.1 0.00 0.05 0.05 89 1012.9
20260904120141 21 270 6.4 11.3 0.00 0.05 0.05 89 1012.8
20260904115313 21 270 8.0 11.3 0.00 0.05 0.05 88 1012.8
20260904115000 21 270 8.0 12.9 0.00 0.05 0.05 88 1012.8
20260904113919 21 248 8.0 12.9 0.00 0.05 0.05 87 1012.5
20260904113000 21 270 11.3 17.7 0.00 0.05 0.05 85 1012.4
20260904111930 21 270 9.7 17.7 0.00 0.05 0.05 86 1012.4
20260904110950 21 270 9.7 20.9 0.00 0.05 0.05 85 1012.4
20260904105959 21 248 14.5 22.5 0.00 0.05 0.05 85 1012.3
20260904104919 21 270 14.5 22.5 0.00 0.05 0.05 85 1012.5
20260904104133 21 270 11.3 14.5 0.00 0.05 0.05 85 1012.6
20260904103341 21 248 11.3 17.7 0.00 0.05 0.05 84 1012.4
20260904102330 21 270 8.0 14.5 0.00 0.05 0.05 84 1012.6
20260904101319 21 293 9.7 16.1 0.00 0.05 0.05 84 1012.5
20260904100319 21 270 11.3 14.5 0.00 0.05 0.05 84 1012.5
20260904095330 21 270 12.9 24.1 0.00 0.05 0.05 85 1012.6
20260904094319 21 225 9.7 19.3 0.00 0.05 0.05 85 1012.5
20260904093319 21 270 12.9 27.4 0.00 0.05 0.05 85 1012.5
20260904092339 22 270 11.3 22.5 0.00 0.05 0.05 85 1012.5
20260904091351 21 270 6.4 12.9 0.00 0.05 0.05 85 1012.3
20260904090319 21 270 9.7 16.1 0.00 0.05 0.05 85 1012.3
20260904085330 21 248 11.3 19.3 0.00 0.05 0.05 86 1012.2
20260904084319 21 270 9.7 16.1 0.00 0.05 0.05 87 1012.0
20260904083330 21 270 12.9 22.5 0.00 0.05 0.05 87 1011.9
20260904082339 21 270 8.0 14.5 0.00 0.05 0.05 88 1011.7
20260904081329 21 248 12.9 20.9 0.00 0.05 0.05 88 1011.9
20260904080319 21 225 11.3 22.5 0.00 0.05 0.05 89 1011.9
20260904075518 21 248 12.9 17.7 0.00 0.05 0.05 91 1012.0
20260904074749 20 270 9.7 16.1 0.00 0.05 0.05 91 1012.1
20260904073738 20 270 8.0 11.3 0.00 0.05 0.05 90 1012.3
20260904072749 20 248 11.3 17.7 0.00 0.05 0.05 89 1012.3
20260904071719 20 270 8.0 12.9 0.00 0.05 0.05 89 1012.4
20260904070719 21 270 11.3 16.1 0.00 0.05 0.05 88 1012.4
20260904065759 21 248 9.7 14.5 0.00 0.05 0.05 88 1012.2
20260904064739 20 248 9.7 17.7 0.00 0.05 0.05 89 1012.2
20260904063740 20 248 17.7 32.2 0.00 0.05 0.05 90 1012.1
20260904062718 20 225 14.5 29.0 0.00 0.05 0.05 90 1011.9
20260904061719 20 225 16.1 30.6 0.03 0.05 0.05 91 1011.8
20260904060740 20 270 12.9 27.4 0.03 0.05 0.05 92 1012.2
20260904055718 20 225 11.3 17.7 0.03 0.05 0.05 92 1012.2
20260904054729 20 225 14.5 24.1 0.03 0.05 0.05 92 1012.3
20260904053719 20 225 9.7 16.1 0.03 0.05 0.05 92 1012.3
20260904052740 20 225 11.3 22.5 0.05 0.05 0.05 92 1012.4
20260904051740 20 225 9.7 16.1 0.03 0.03 0.03 92 1012.5
20260904050800 20 270 6.4 12.9 0.03 0.03 0.03 91 1012.7
20260904045729 20 270 8.0 14.5 0.03 0.03 0.03 91 1013.0
20260904044729 20 225 3.2 9.7 0.03 0.03 0.03 92 1013.2
20260904043811 20 270 3.2 6.4 0.03 0.03 0.03 91 1013.3
20260904042740 20 248 4.8 9.7 0.00 0.00 0.00 91 1013.5
20260904041740 20 225 6.4 12.9 0.00 0.00 0.00 91 1013.4
20260904040718 20 270 4.8 6.4 0.00 0.00 0.00 91 1013.5
20260904035740 20 248 8.0 12.9 0.00 0.00 0.00 91 1013.5
20260904034718 20 248 9.7 12.9 0.00 0.00 0.00 91 1013.5
20260904033809 20 225 11.3 14.5 0.00 0.00 0.00 90 1013.6
20260904032729 20 270 9.7 14.5 0.00 0.00 0.00 90 1013.6
20260904031718 20 225 11.3 17.7 0.00 0.00 0.00 90 1013.6
20260904030729 20 225 11.3 29.0 0.00 0.00 0.00 90 1013.8
20260904025719 20 270 11.3 20.9 0.00 0.00 0.00 90 1014.1
20260904024718 20 248 8.0 12.9 0.00 0.00 0.00 90 1014.1
20260904023719 20 225 8.0 14.5 0.00 0.00 0.00 90 1014.2
20260904022718 20 270 8.0 16.1 0.00 0.00 0.00 90 1014.2
20260904021718 20 225 12.9 20.9 0.00 0.00 0.00 90 1014.3
20260904020718 20 225 11.3 17.7 0.00 0.00 0.00 90 1014.4
20260904015750 20 248 9.7 20.9 0.00 0.00 0.00 90 1014.4
20260904014750 20 248 8.0 19.3 0.00 0.00 0.00 90 1014.7
20260904013751 20 248 8.0 17.7 0.00 0.00 0.00 90 1014.8
20260904012752 20 248 8.0 14.5 0.00 0.00 0.00 90 1014.9
20260904011729 20 225 3.2 6.4 0.00 0.00 0.00 90 1015.0
20260904010718 20 270 4.8 6.4 0.00 0.00 0.00 89 1015.2
20260904005729 20 270 8.0 14.5 0.00 0.00 0.00 89 1015.3